EW6166 Weather Reports


Display with metric or nautical units.
time (UTC)temp
F
wind
direction
speed
MPH
gust
MPH
rain 1hr
in
rain 24hr
in
rain mn
in
humidity
%
barometer
mb
20200405103204 51 117 0.0 0.0 0.00 0.00 0.00 97 1016.8
20200405102205 51 117 0.0 0.0 0.00 0.00 0.00 97 1016.8
20200405101204 51 117 0.0 0.0 0.00 0.00 0.00 97 1016.6
20200405100204 51 117 0.0 0.0 0.00 0.00 0.00 97 1016.6
20200405095204 51 117 0.0 0.0 0.00 0.00 0.00 97 1016.8
20200405094203 51 117 0.0 0.0 0.00 0.00 0.00 97 1016.8
20200405093204 51 117 0.0 0.0 0.00 0.00 0.00 97 1016.6
20200405092205 51 117 0.0 0.0 0.00 0.00 0.00 97 1016.8
20200405091204 51 117 0.0 0.0 0.00 0.00 0.00 97 1016.9
20200405090204 52 117 0.0 0.0 0.00 0.00 0.00 97 1016.7
20200405085204 52 117 0.0 0.0 0.00 0.00 0.00 97 1016.3
20200405084204 52 117 0.0 0.0 0.00 0.00 0.00 97 1016.3
20200405083204 52 117 0.0 0.0 0.00 0.00 0.00 97 1016.5
20200405082204 52 117 0.0 0.0 0.00 0.00 0.00 97 1016.2
20200405081204 52 196 0.0 0.0 0.00 0.00 0.00 97 1015.7
20200405080204 52 196 0.0 0.0 0.00 0.00 0.00 97 1016.0
20200405075204 52 196 0.0 0.0 0.00 0.00 0.00 97 1016.3
20200405074204 52 196 0.0 0.0 0.00 0.00 0.00 98 1016.2
20200405073205 52 196 0.0 0.0 0.00 0.00 0.00 98 1015.9
20200405072204 52 196 0.0 0.0 0.00 0.00 0.00 98 1015.8
20200405071204 52 201 0.0 0.0 0.00 0.00 0.00 97 1016.1
20200405070204 52 107 0.0 0.0 0.00 0.00 0.00 97 1016.4
20200405065204 52 107 0.0 0.0 0.00 0.00 0.00 97 1016.5
20200405064204 53 107 0.0 0.0 0.00 0.00 0.00 97 1016.7
20200405063204 53 112 0.0 0.0 0.00 0.00 0.00 97 1016.4
20200405062204 53 112 0.0 0.0 0.00 0.00 0.00 97 1016.7
20200405061205 53 111 0.0 0.0 0.00 0.00 0.00 97 1016.7
20200405060204 53 111 0.0 0.0 0.00 0.00 0.00 97 1016.8
20200405055204 53 111 0.0 0.0 0.00 0.00 0.00 97 1016.5
20200405054204 52 111 0.0 0.0 0.00 0.00 0.00 98 1016.6
20200405053204 52 111 0.0 0.0 0.00 0.00 0.00 98 1016.6
20200405052204 52 111 0.0 0.0 0.00 0.00 0.00 98 1016.7
20200405051204 52 111 0.0 0.0 0.00 0.00 0.00 98 1016.6
20200405045204 52 111 0.0 0.0 0.00 0.00 0.00 97 1016.3
20200405044204 52 111 0.0 0.0 0.00 0.00 0.00 97 1016.5
20200405043204 52 111 0.0 0.0 0.00 0.00 0.00 97 1016.7
20200405042204 52 111 0.0 0.0 0.00 0.00 0.00 98 1016.5
20200405041204 52 111 0.0 0.0 0.00 0.00 0.00 98 1016.5
20200405040204 52 111 0.0 0.0 0.00 0.00 0.00 98 1016.5
20200405035204 51 111 0.0 0.0 0.00 0.00 0.00 97 1016.5
20200405034205 51 111 0.0 0.0 0.00 0.00 0.00 97 1016.9
20200405033204 51 111 0.0 0.0 0.00 0.00 0.00 97 1016.8
20200405032205 51 111 0.0 0.0 0.00 0.00 0.00 97 1016.7
20200405031204 51 111 0.0 0.0 0.00 0.00 0.00 98 1016.8
20200405030204 51 111 0.0 0.0 0.00 0.00 0.00 98 1016.9
20200405025204 51 111 0.0 0.0 0.00 0.00 0.00 97 1016.7
20200405024204 51 109 0.0 0.0 0.00 0.00 0.00 98 1016.7
20200405023204 51 110 0.0 0.0 0.00 0.00 0.00 97 1016.5
20200405022204 50 110 0.0 0.0 0.00 0.00 0.00 98 1016.3
20200405021204 50 110 0.0 0.0 0.00 0.00 0.00 98 1016.0
20200405020205 50 110 0.0 0.0 0.00 0.00 0.00 97 1016.0
20200405015204 50 110 0.0 0.0 0.00 0.00 0.00 97 1015.7
20200405014204 50 110 0.0 0.0 0.00 0.00 0.00 97 1016.3
20200405013205 50 110 0.0 0.0 0.00 0.00 0.00 97 1016.1
20200405012204 50 110 0.0 0.0 0.00 0.00 0.00 98 1015.8
20200405011204 50 110 0.0 0.0 0.00 0.00 0.00 97 1015.3
20200405010204 49 110 0.0 0.0 0.00 0.00 0.00 97 1014.9
20200405005204 49 110 0.0 0.0 0.00 0.00 0.00 97 1014.8
20200405004205 49 110 0.0 0.0 0.00 0.00 0.00 97 1015.1
20200405003204 49 110 0.0 0.0 0.00 0.00 0.00 97 1015.2
20200405002204 49 110 0.0 0.0 0.00 0.00 0.00 97 1015.1
20200405001204 49 110 0.0 0.0 0.00 0.00 0.00 97 1015.1
20200405000204 49 110 0.0 0.0 0.00 0.00 0.00 97 1015.4
20200404235205 49 110 0.0 0.0 0.00 0.00 0.00 97 1015.0
20200404234204 49 110 0.0 0.0 0.00 0.00 0.00 97 1014.9
20200404233204 49 110 0.0 0.0 0.00 0.00 0.00 97 1014.6
20200404232204 49 110 0.0 0.0 0.00 0.00 0.00 97 1014.8
20200404231204 48 109 0.0 0.0 0.00 0.00 0.00 97 1015.4
20200404230205 49 109 0.0 0.0 0.00 0.00 0.00 97 1015.3
20200404225204 48 93 0.0 0.0 0.00 0.00 0.00 97 1014.6
20200404224204 49 179 0.0 0.0 0.00 0.00 0.00 97 1014.3
20200404223204 48 136 0.0 0.0 0.00 0.00 0.00 97 1014.3
20200404222204 49 138 0.0 0.0 0.00 0.00 0.00 97 1014.3
20200404221205 48 260 0.0 0.0 0.00 0.00 0.00 97 1014.2
20200404220204 48 260 0.0 0.0 0.00 0.00 0.00 97 1014.5
20200404215204 48 260 0.0 0.0 0.00 0.00 0.00 97 1014.5
20200404214204 48 260 0.0 0.0 0.00 0.00 0.00 97 1014.5
20200404213204 48 286 0.0 0.0 0.00 0.00 0.00 97 1014.6
20200404212205 48 5 0.0 0.0 0.00 0.00 0.00 97 1015.0
20200404211204 48 71 0.0 0.0 0.00 0.00 0.00 97 1015.5
20200404210204 48 71 0.0 0.0 0.00 0.00 0.00 97 1015.3
20200404205205 48 71 0.0 0.0 0.00 0.00 0.00 97 1015.8
20200404204204 48 125 0.0 0.0 0.00 0.00 0.00 97 1015.5
20200404203204 48 114 0.0 0.0 0.00 0.00 0.00 97 1015.7
20200404202205 48 85 0.0 0.0 0.00 0.00 0.00 97 1016.0
20200404201204 48 92 0.0 0.0 0.00 0.00 0.00 97 1016.2
20200404200204 48 91 0.0 0.0 0.00 0.00 0.00 97 1016.4
20200404195204 48 80 0.0 0.0 0.00 0.00 0.00 97 1016.3
20200404194204 48 86 0.0 0.0 0.00 0.00 0.00 97 1016.5
20200404193204 48 83 0.0 0.0 0.00 0.00 0.00 97 1016.6
20200404192204 48 92 0.0 0.0 0.00 0.00 0.00 97 1016.6
20200404191204 48 90 0.0 0.0 0.00 0.00 0.00 97 1016.4
20200404190205 48 87 0.0 0.0 0.00 0.00 0.00 97 1016.9
20200404185204 48 92 0.0 0.0 0.00 0.00 0.00 97 1017.6
20200404184204 48 84 0.0 0.0 0.00 0.00 0.00 97 1017.3
20200404183204 48 107 0.0 0.0 0.00 0.00 0.00 97 1017.3
20200404182204 48 123 0.0 0.0 0.00 0.00 0.00 97 1017.4
20200404181205 48 89 0.0 0.0 0.00 0.00 0.00 97 1017.6
20200404180204 48 148 0.0 0.0 0.00 0.00 0.00 97 1017.7
20200404175204 48 148 0.0 0.0 0.00 0.00 0.00 97 1017.5
20200404174204 47 137 0.0 0.0 0.00 0.00 0.00 97 1017.7
20200404173204 47 132 0.0 0.0 0.00 0.00 0.00 97 1018.0
20200404172205 47 130 0.0 0.0 0.00 0.00 0.00 97 1018.4
20200404171204 47 130 0.0 0.0 0.00 0.00 0.00 97 1018.5
20200404170204 47 128 0.0 0.0 0.00 0.00 0.00 97 1018.8
20200404165205 47 128 0.0 0.0 0.00 0.00 0.00 97 1018.2
20200404164204 48 128 0.0 0.0 0.00 0.00 0.00 97 1017.4
20200404163204 47 129 0.0 0.0 0.00 0.00 0.00 97 1017.3
20200404162204 47 129 0.0 0.0 0.00 0.00 0.00 97 1017.4
20200404161204 47 130 0.0 0.0 0.00 0.00 0.00 98 1017.2
20200404160204 47 130 0.0 0.0 0.00 0.00 0.00 97 1017.2
20200404155204 47 130 0.0 0.0 0.00 0.00 0.00 97 1017.1
20200404154204 46 137 0.0 0.0 0.00 0.00 0.00 97 1017.2
20200404153205 46 136 0.0 0.0 0.00 0.00 0.00 97 1017.7
20200404152204 46 82 0.0 0.0 0.00 0.00 0.00 97 1017.9
20200404151204 46 96 0.0 0.0 0.00 0.00 0.00 97 1018.1
20200404150204 45 92 0.0 0.0 0.00 0.00 0.00 97 1018.2
20200404145204 45 90 0.0 0.0 0.00 0.00 0.00 97 1018.8
20200404144204 45 132 0.0 0.0 0.00 0.00 0.00 97 1019.0
20200404143204 44 136 0.0 0.0 0.00 0.00 0.00 97 1018.7
20200404142204 45 127 0.0 0.0 0.00 0.00 0.00 97 1018.6
20200404141205 45 98 0.0 0.0 0.00 0.00 0.00 97 1018.5
20200404140204 46 111 0.0 0.0 0.00 0.00 0.00 97 1017.9
20200404135204 46 173 0.0 0.0 0.00 0.00 0.00 97 1017.6
20200404134204 46 107 0.0 0.0 0.00 0.00 0.00 97 1017.6
20200404133204 46 103 0.0 0.0 0.00 0.00 0.00 97 1017.9
20200404132204 46 101 0.0 0.0 0.00 0.00 0.00 97 1018.0
20200404131204 46 105 0.0 0.0 0.00 0.00 0.00 97 1017.7
20200404130204 46 142 0.0 0.0 0.00 0.00 0.00 97 1017.3
20200404125205 46 222 0.0 0.0 0.00 0.00 0.00 97 1017.0
20200404124204 46 223 0.0 0.0 0.00 0.00 0.00 97 1016.5
20200404123205 45 223 0.0 0.0 0.00 0.00 0.00 97 1016.6
20200404122204 45 212 0.0 0.0 0.00 0.00 0.00 97 1016.6
20200404121204 45 212 0.0 0.0 0.00 0.00 0.00 97 1016.2
20200404120204 46 212 0.0 0.0 0.00 0.00 0.00 97 1016.1
20200404115205 46 162 0.0 0.0 0.00 0.00 0.00 97 1016.2
20200404114204 46 153 0.0 0.0 0.00 0.00 0.00 97 1016.3
20200404113204 46 140 0.0 0.0 0.00 0.00 0.00 97 1016.5
20200404112204 46 117 0.0 0.0 0.00 0.00 0.00 97 1016.8
20200404111204 46 104 0.0 0.0 0.00 0.00 0.00 97 1017.0
20200404110204 45 108 0.0 0.0 0.00 0.00 0.00 97 1016.8
20200404105204 45 109 0.0 0.0 0.00 0.00 0.00 97 1017.0
20200404104205 45 84 0.0 0.0 0.00 0.00 0.00 97 1016.7